星链-32481 (STARLINK-32481)

导读

STARLINK-32481是美国SpaceX公司星链(Starlink)星座的成员卫星,于2024年12月13日成功发射入轨。星链是SpaceX打造的低轨卫星互联网项目,旨在为全球偏远、无网络覆盖区域提供高速宽带服务,该卫星属于第二代星链组网卫星,将补充增强星座网络容量,助力星链实现全球泛在互联目标。截至2024年底,SpaceX已累计发射超七千颗星链卫星,持续推进全球卫星互联网布局。

基本信息
目录编号:
62320
目录名称:
STARLINK-32481
国际标识:
2024-239V
轨道中心:
EARTH
卫星名称:
星链-32481
卫星全名:
星链-32481 (STARLINK-32481)
卫星状态:
在轨 (已飞行630 天)
发射日期:
2024-12-13 UTC
国别 :
美国 (US)
星等 :
--
轨道信息
数据来源 国际轨道数据
星历时间: 2026-09-02T22:00:02+0800
1天前
查看轨道信息
半长轴: 6841.436km
偏心率: 0.0002752
轨道倾角: 53.161°
近地点辐角 213.490°
升交点赤经 79.118°
平近点角 95.758°
近地点: 461.416km
远地点: 465.182km
周期: 93.860分钟
每日圈数: 15.341997
详细信息
固有亮度:
5
最大亮度:
2.5
卫星平台:
Starlink V1.0
覆盖范围:
全球
运营商:
太空探索技术公司
运营商所在国:
美国
制造商(研发单位):
太空探索技术公司
制造商所在国:
美国
使用方式:
暂无
卫星简介
Starlink 计划是 SpaceX 推出的全球卫星互联网项目,通过发射低轨道卫星,为全球尤其是偏远地区提供高速、低延迟的互联网服务。自 2019 年起,Starlink 已部署数千颗卫星,旨在缩小全球数字鸿沟,推动互联网普及。该项目还为军事、航空等行业提供通信支持,带来广泛经济效益。
2D轨道图
3D轨道图
轨道高度分析图
轨道倾角分析图
轨道综合分析图
查看轨道综合分析图
交会数据列表
事件ID 空间交会对象 最接近时刻(TCA) 交会距离 交会风险概率(CRP) 交会风险指数(CRI) 操作
CDM_260905-033705-326206-232021
2026-09-05T
03:37:20+0000
0.679 km
远距离
3.41311E-5 中风险 0.66
CDM_260902-125605-505306-232022
EOSSAT-1 (55053)
2026-09-02T
12:56:45+0000
2.059 km
极远距离
2.542726E-6 低风险 0.43
CDM_260905-151206-232006-448121
2026-09-05T
15:12:51+0000
1.940 km
极远距离
1.865511E-6 低风险 0.4
CDM_260902-134305-505306-232021
EOSSAT-1 (55053)
2026-09-02T
13:43:42+0000
2.530 km
极远距离
1.644768E-6 低风险 0.39
CDM_260831-043106-232006-952221
2026-08-31T
04:31:27+0000
2.436 km
极远距离
1.533453E-6 低风险 0.39
CDM_260830-172906-232006-566521
2026-08-30T
17:29:28+0000
2.715 km
极远距离
1.526923E-6 低风险 0.39
CDM_260901-192606-232006-922721
2026-09-01T
19:26:19+0000
2.832 km
极远距离
1.439817E-6 低风险 0.38
CDM_260901-193606-232006-970921
2026-09-01T
19:36:07+0000
2.843 km
极远距离
1.422666E-6 低风险 0.38
CDM_260902-102506-232006-956021
2026-09-02T
10:25:23+0000
2.885 km
极远距离
1.399306E-6 低风险 0.38
CDM_260901-201306-232006-922722
2026-09-01T
20:13:17+0000
2.905 km
极远距离
1.391652E-6 低风险 0.38